Regional Weather Roundup
Issued by NWS

Current Version | Previous Version | Text Only | Print | Product List | Glossary On
Versions: 1 2 3 4 5 6 7 8 9 10 11 12 13 14 15 16 17 18 19 20 21 22 23 24 25 26 27 28 29 30 31 32 33 34 35 36 37 38 39 40 41 42 43 44 45 46 47
000
ASUS45 KREV 032110
RWRNV
NEVADA REGIONAL WEATHER ROUNDUP
NATIONAL WEATHER SERVICE RENO NV
200 PM PDT THU SEP 03 2015

NOTE: "FAIR" INDICATES FEW OR NO CLOUDS BELOW 12,000 FEET WITH NO
SIGNIFICANT WEATHER AND/OR OBSTRUCTIONS TO VISIBILITY.

NVZ001-003-004-032200-
WESTERN NEVADA

CITY           SKY/WX    TMP DP  RH WIND       PRES   REMARKS
RENO           FAIR      78  35  21 SW15G23   29.88S
CARSON CITY    FAIR      75  34  22 W16G25    29.90F
MINDEN         FAIR      77  34  20 W17       29.90F
PYRAMID LAKE     N/A     75 N/A N/A NE5         N/A
FALLON         FAIR      82  28  14 SW6       29.82F
LOVELOCK       FAIR      80  33  18 SW15G25   29.82F
HAWTHORNE      SUNNY     82  25  12 NW8       29.83F
$$

NVZ002-CAZ072-073-032200-
NORTHERN AND CENTRAL SIERRA

CITY           SKY/WX    TMP DP  RH WIND       PRES   REMARKS
S. LAKE TAHOE  FAIR      67  35  30 VRB7G22   30.00F
TRUCKEE        PTSUNNY   64  37  36 SW13G24   30.00F
SQUAW VLY 8000   N/A     52  37  58 SW13        N/A
SUSANVILLE     MOSUNNY   75  28  17 S15G24    29.89F
BLUE CANYON    FAIR      64  38  38 S16G24    30.02F
MAMMOTH LAKES  FAIR      73  27  17 W18G28    30.03S
BRIDGEPORT     FAIR      70  29  21 SW14G25   30.01F
$$

NVZ030-031-036-032200-
NORTHERN NEVADA

CITY           SKY/WX    TMP DP  RH WIND       PRES   REMARKS
ELKO           FAIR      80  27  14 W18G24    29.85F
WINNEMUCCA     PTSUNNY   77  31  18 VRB6      29.84F
WENDOVER       FAIR      88  36  15 S20       29.78F
$$

NVZ035-037-032200-
CENTRAL NEVADA

CITY           SKY/WX    TMP DP  RH WIND       PRES   REMARKS
ELY            FAIR      79  27  14 S30G40    29.97F
EUREKA           N/A     82  14   8 S16G32    29.89F
$$

NVZ013-014-032200-
SOUTH CENTRAL NEVADA

CITY           SKY/WX    TMP DP  RH WIND       PRES   REMARKS
TONOPAH        FAIR      81  16   9 SW18G29   29.92F
$$

NVZ017-020-022-032200-
SOUTHERN NEVADA

CITY           SKY/WX    TMP DP  RH WIND       PRES   REMARKS
LAS VEGAS      FAIR      97  34  11 CALM      29.74F
N. LAS VEGAS   FAIR      97  36  12 SW20      29.76F
NELLIS AFB     FAIR      99  37  12 S17G25    29.73F
HENDERSON      FAIR      97  39  13 MISG        N/A
MERCURY        FAIR      91  30  11 SW24G36   29.85F
$$


USA.gov is the U.S. government's official web portal to all federal, state and local government web resources and services.